Location: Indian Springs
(36.5700°N, 115.6700°W)
Time: 07:04:15
(UTC-07:00)

Amateur Radio Satellites - All Passes

Search period start: 02 September 2014 06:34
Search period end: 03 September 2014 06:34
Location: Indian Springs, 36.5700°N, 115.6700°W

Satellite Date Start Highest point End Downlink Frequencies (MHz)
Time Altitude Azimuth
Hamsat 02 Sep 06:37:23 06:41:44 82° 102° (ESE) 06:46:01 145.90 MHz
JAS-2 02 Sep 07:01:28 07:06:48 74° 285° (WNW) 07:12:38 435.800 - 435.900 CW/SSB, 435.910 FM
SO-67 02 Sep 07:13:56 07:16:48 24° 96° (E) 07:19:39 435.3500 MHz FM
Saudisat 1A 02 Sep 07:26:50 07:31:10 57° 243° (WSW) 07:35:28 436.775 MHz
STRAND 1 02 Sep 08:04:18 08:07:17 16° 267° (W) 08:10:18 ?
KITSAT 1 02 Sep 08:07:01 08:15:04 67° 59° (ENE) 08:23:04 435.175 FM
ISS 02 Sep 08:18:22 08:20:47 19° 130° (SE) 08:23:12 145.800 FM
RS-15 02 Sep 08:42:21 08:52:52 48° 310° (NW) 09:03:19 29.354 - 29.394 USB, Beacon 29.352 USB
SO-67 02 Sep 08:47:32 08:49:38 15° 290° (WNW) 08:51:43 435.3500 MHz FM
HO-68 02 Sep 08:54:39 09:00:47 30° 97° (E) 09:06:53 435.675 MHz FM
ISS 02 Sep 09:54:12 09:57:18 37° 325° (NW) 10:00:26 145.800 FM
PANSAT 02 Sep 10:02:26 10:04:36 15° 164° (SSE) 10:06:46 not established
KITSAT 1 02 Sep 10:03:41 10:09:45 24° 256° (WSW) 10:15:48 435.175 FM
UKube-1 02 Sep 10:12:20 10:16:41 82° 103° (ESE) 10:21:02 145.840 MHz, 145.915 MHz
Oscar 11 02 Sep 10:15:28 10:19:47 57° 100° (E) 10:24:03 145.825 FM, Beacon 2401.500 USB
SO-50 02 Sep 10:33:55 10:36:06 13° 43° (NE) 10:38:17 436.795 FM
HO-68 02 Sep 10:41:51 10:48:36 47° 292° (WNW) 10:55:21 435.675 MHz FM
FUNcube-1 02 Sep 10:48:54 10:53:22 53° 100° (E) 10:57:53 145.950 - 145.970 MHz USB
RS-15 02 Sep 11:02:44 11:09:00 16° 341° (NNW) 11:15:17 29.354 - 29.394 USB, Beacon 29.352 USB
MaSat-1 02 Sep 11:29:16 11:32:46 20° 102° (ESE) 11:36:26 437.345 MHz
PANSAT 02 Sep 11:41:04 11:44:13 24° 176° (S) 11:47:21 not established
Oscar 11 02 Sep 11:53:53 11:55:26 12° 295° (WNW) 11:56:58 145.825 FM, Beacon 2401.500 USB
SO-50 02 Sep 12:12:28 12:17:17 88° 241° (WSW) 12:22:09 436.795 FM
UOSAT-12 02 Sep 12:18:05 12:19:30 11° 41° (NE) 12:20:55 437.025 FM, 437.400 FM
FUNcube-1 02 Sep 12:26:58 12:29:18 14° 294° (WNW) 12:31:38 145.950 - 145.970 MHz USB
Oscar 19 02 Sep 12:36:52 12:41:02 25° 67° (ENE) 12:45:13 437.125 CW, 437.150 USB
AO-Echo 02 Sep 12:43:12 12:45:15 13° 64° (ENE) 12:47:17 ?
MaSat-1 02 Sep 13:04:43 13:09:23 44° 299° (WNW) 13:14:19 437.345 MHz
JAS-1B 02 Sep 13:05:33 13:13:59 36° 66° (ENE) 13:21:37 435.800 - 435.900 CW/SSB
Oscar 16 02 Sep 13:11:13 13:16:15 57° 73° (ENE) 13:21:20 437.025 USB, Beacon 2401.1428
ITAMSAT 1 02 Sep 13:15:58 13:20:11 26° 67° (ENE) 13:24:24 435.822 SSB
PANSAT 02 Sep 13:20:57 13:23:54 21° 189° (S) 13:26:50 not established
RS-15 02 Sep 13:21:43 13:28:01 16° 19° (NNE) 13:34:24 29.354 - 29.394 USB, Beacon 29.352 USB
Uribyol 2 02 Sep 13:24:42 13:29:17 33° 69° (ENE) 13:33:53 436.500 FM
TMSAT-1 02 Sep 13:42:20 13:45:16 15° 63° (ENE) 13:48:11 436.925 FM
AO-27 02 Sep 13:44:54 13:49:53 51° 72° (ENE) 13:54:53 436.795 MHz FM
UOSAT-12 02 Sep 13:55:40 14:00:25 82° 60° (ENE) 14:05:03 437.025 FM, 437.400 FM
Oscar 19 02 Sep 14:15:29 14:20:10 35° 263° (W) 14:24:53 437.125 CW, 437.150 USB
AO-Echo 02 Sep 14:18:28 14:23:28 67° 258° (WSW) 14:28:21 ?
Gurwin Techsat 1B 02 Sep 14:29:51 14:35:04 60° 73° (ENE) 14:40:17 435.225 FM
ISS 02 Sep 14:49:07 14:50:59 14° 24° (NNE) 14:52:52 145.800 FM
Oscar 16 02 Sep 14:53:07 14:55:56 15° 268° (W) 14:58:47 437.025 USB, Beacon 2401.1428
JAS-1B 02 Sep 14:54:32 15:04:05 56° 260° (W) 15:12:45 435.800 - 435.900 CW/SSB
ITAMSAT 1 02 Sep 14:54:52 14:59:30 33° 262° (W) 15:04:09 435.822 SSB
Uribyol 2 02 Sep 15:04:32 15:08:45 25° 264° (W) 15:13:00 436.500 FM
Uosat F 02 Sep 15:13:08 15:16:44 20° 66° (ENE) 15:20:21 435.120 FM
TMSAT-1 02 Sep 15:19:23 15:24:36 63° 259° (WSW) 15:29:52 436.925 FM
AO-7 02 Sep 15:26:03 15:33:53 48° 65° (ENE) 15:41:44 29.400 - 29.500 MHz
AO-27 02 Sep 15:26:24 15:29:39 17° 267° (W) 15:32:54 436.795 MHz FM
Sapphire 02 Sep 15:28:00 15:32:42 31° 108° (ESE) 15:37:26 437.095 MHz 1200 baud AX-25 AFSK
RS-15 02 Sep 15:33:39 15:44:14 47° 50° (NE) 15:55:09 29.354 - 29.394 USB, Beacon 29.352 USB
PCSat 02 Sep 15:56:22 16:01:41 64° 113° (ESE) 16:07:03 145.825 MHz
Gurwin Techsat 1B 02 Sep 16:12:33 16:15:23 15° 268° (W) 16:18:14 435.225 FM
ISS 02 Sep 16:24:47 16:28:08 89° 222° (SW) 16:31:27 145.800 FM
OPAL 02 Sep 16:47:09 16:51:59 38° 100° (E) 16:56:46 ?
Uosat F 02 Sep 16:50:29 16:55:12 41° 261° (W) 16:59:56 435.120 FM
Sapphire 02 Sep 17:11:13 17:16:02 32° 305° (NW) 17:20:53 437.095 MHz 1200 baud AX-25 AFSK
JAS-2 02 Sep 17:11:43 17:17:04 34° 70° (ENE) 17:21:59 435.800 - 435.900 CW/SSB, 435.910 FM
AO-7 02 Sep 17:19:19 17:26:44 35° 262° (W) 17:34:12 29.400 - 29.500 MHz
Hamsat 02 Sep 17:28:10 17:32:13 41° 73° (ENE) 17:36:20 145.90 MHz
PCSat 02 Sep 17:41:53 17:45:33 18° 311° (NW) 17:49:14 145.825 MHz
RS-15 02 Sep 17:46:06 17:56:37 50° 250° (WSW) 18:07:35 29.354 - 29.394 USB, Beacon 29.352 USB
OPAL 02 Sep 18:26:28 18:30:37 25° 295° (WNW) 18:34:45 ?
STRAND 1 02 Sep 18:36:44 18:40:37 22° 95° (E) 18:44:29 ?
JAS-2 02 Sep 18:56:56 19:02:08 29° 262° (W) 19:06:56 435.800 - 435.900 CW/SSB, 435.910 FM
Hamsat 02 Sep 19:05:57 19:08:21 15° 268° (W) 19:10:47 145.90 MHz
SO-67 02 Sep 19:16:42 19:20:09 69° 259° (W) 19:23:36 435.3500 MHz FM
HO-68 02 Sep 19:22:30 19:27:04 19° 58° (ENE) 19:31:37 435.675 MHz FM
STRAND 1 02 Sep 20:15:11 20:19:53 39° 289° (WNW) 20:24:35 ?
UKube-1 02 Sep 21:05:22 21:09:33 51° 73° (ENE) 21:13:46 145.840 MHz, 145.915 MHz
HO-68 02 Sep 21:06:47 21:13:55 80° 255° (WSW) 21:21:06 435.675 MHz FM
Oscar 11 02 Sep 21:08:16 21:12:09 33° 71° (ENE) 21:16:03 145.825 FM, Beacon 2401.500 USB
MaSat-1 02 Sep 21:25:21 21:28:52 23° 55° (NE) 21:32:00 437.345 MHz
Saudisat 1A 02 Sep 21:30:41 21:35:02 66° 118° (ESE) 21:39:25 436.775 MHz
FUNcube-1 02 Sep 21:43:29 21:47:08 30° 71° (ENE) 21:50:51 145.950 - 145.970 MHz USB
KITSAT 1 02 Sep 22:32:00 22:39:57 65° 113° (ESE) 22:47:56 435.175 FM
UKube-1 02 Sep 22:44:22 22:46:01 12° 268° (W) 22:47:40 145.840 MHz, 145.915 MHz
Oscar 11 02 Sep 22:45:20 22:48:22 19° 266° (W) 22:51:26 145.825 FM, Beacon 2401.500 USB
HO-68 02 Sep 23:00:53 23:02:32 11° 271° (W) 23:04:12 435.675 MHz FM
MaSat-1 02 Sep 23:02:15 23:05:47 26° 256° (WSW) 23:08:53 437.345 MHz
Saudisat 1A 02 Sep 23:12:44 23:15:03 14° 315° (NW) 23:17:23 436.775 MHz
FUNcube-1 02 Sep 23:20:33 23:23:33 19° 266° (W) 23:26:37 145.950 - 145.970 MHz USB
AO-40 03 Sep 00:09:23 01:52:05 27° 222° (SW) 05:25:12 Beacon 2401.320
Sapphire 03 Sep 00:18:49 00:22:22 17° 48° (NE) 00:25:55 437.095 MHz 1200 baud AX-25 AFSK
KITSAT 1 03 Sep 00:29:05 00:35:53 29° 313° (NW) 00:42:44 435.175 FM
PCSat 03 Sep 00:47:05 00:51:53 31° 55° (NE) 00:56:38 145.825 MHz
Oscar 16 03 Sep 01:26:04 01:30:18 25° 95° (E) 01:34:29 437.025 USB, Beacon 2401.1428
ITAMSAT 1 03 Sep 01:34:00 01:34:45 10° 90° (E) 01:35:30 435.822 SSB
Uribyol 2 03 Sep 01:41:13 01:43:57 14° 92° (E) 01:46:41 436.500 FM
Sapphire 03 Sep 02:00:54 02:06:18 68° 246° (WSW) 02:11:39 437.095 MHz 1200 baud AX-25 AFSK
AO-27 03 Sep 02:01:07 02:05:07 22° 95° (E) 02:09:06 436.795 MHz FM
SO-50 03 Sep 02:25:12 02:29:31 54° 116° (ESE) 02:33:57 436.795 FM
AO-Echo 03 Sep 02:28:13 02:32:44 45° 99° (E) 02:37:17 ?
Oscar 19 03 Sep 02:29:01 02:34:14 81° 284° (WNW) 02:39:24 437.125 CW, 437.150 USB
PCSat 03 Sep 02:30:26 02:35:15 33° 251° (WSW) 02:40:02 145.825 MHz
JAS-1B 03 Sep 02:45:07 02:51:21 53° 99° (E) 02:56:55 435.800 - 435.900 CW/SSB
Gurwin Techsat 1B 03 Sep 02:49:02 02:53:38 29° 96° (E) 02:58:12 435.225 FM
Oscar 16 03 Sep 03:04:58 03:09:39 35° 290° (WNW) 03:14:19 437.025 USB, Beacon 2401.1428
ITAMSAT 1 03 Sep 03:09:34 03:14:45 78° 285° (WNW) 03:19:56 435.822 SSB
Uribyol 2 03 Sep 03:18:39 03:23:46 59° 287° (WNW) 03:28:52 436.500 FM
AO-7 03 Sep 03:32:29 03:37:05 16° 92° (E) 03:41:39 29.400 - 29.500 MHz
TMSAT-1 03 Sep 03:37:41 03:42:58 64° 101° (ESE) 03:48:12 436.925 FM
AO-27 03 Sep 03:39:56 03:44:43 39° 290° (WNW) 03:49:30 436.795 MHz FM
OPAL 03 Sep 03:59:36 04:04:29 51° 70° (ENE) 04:09:28 ?
UOSAT-12 03 Sep 04:04:32 04:08:52 43° 115° (ESE) 04:13:17 437.025 FM, 437.400 FM
SO-50 03 Sep 04:07:30 04:10:25 17° 314° (NW) 04:13:23 436.795 FM
AO-Echo 03 Sep 04:08:13 04:11:08 17° 294° (WNW) 04:14:04 ?
Gurwin Techsat 1B 03 Sep 04:28:55 04:33:31 31° 291° (WNW) 04:38:06 435.225 FM
JAS-1B 03 Sep 04:36:57 04:41:23 20° 300° (WNW) 04:45:30 435.800 - 435.900 CW/SSB
Uosat F 03 Sep 05:00:17 05:05:18 73° 103° (ESE) 05:10:18 435.120 FM
TMSAT-1 03 Sep 05:19:24 05:22:18 15° 297° (WNW) 05:25:11 436.925 FM
AO-7 03 Sep 05:22:25 05:30:45 89° 288° (WNW) 05:39:02 29.400 - 29.500 MHz
OPAL 03 Sep 05:40:27 05:43:38 17° 265° (W) 05:46:51 ?
UOSAT-12 03 Sep 05:45:41 05:49:12 21° 312° (NW) 05:52:46 437.025 FM, 437.400 FM
STRAND 1 03 Sep 05:50:28 05:54:34 25° 67° (ENE) 05:58:40 ?
RS-15 03 Sep 05:55:21 06:04:55 35° 106° (ESE) 06:14:17 29.354 - 29.394 USB, Beacon 29.352 USB
Saudisat 1A 03 Sep 06:00:05 06:03:51 27° 52° (NE) 06:07:36 436.775 MHz
JAS-2 03 Sep 06:06:46 06:11:44 36° 99° (E) 06:17:07 435.800 - 435.900 CW/SSB, 435.910 FM
